Location: Amsterdam
(30.7274°N, 84.4357°W)
Time: 15:22:09
(UTC+00:00)

Transit 2A Rocket - Pass Details

Date: 07 February 2026
Orbit: 583 x 900 km, 66.7° (Epoch: 6 March)

Event Time Altitude Azimuth Distance (km) Brightness Sun altitude
Exits shadow 10:55:36 10° 210° (SSW) 2,106 7.0 -19.6°
Drops below altitude 10° 10:55:44 10° 209° (SSW) 2,142 7.1 -19.6°
Sets 10:58:25 0° 192° (SSW) 2,979 8.0 -19.0°
